NOAA NWS Hourly Roundups by Site

Regional Weather Roundup for Omaha, NE

To Select Another Site Choose from List

Select Site:  

000
ASUS43 KOAX 041110
RWRNE

WEATHER ROUNDUP FOR NEBRASKA
NATIONAL WEATHER SERVICE OMAHA NE
600 AM CDT SAT JUL 04 2020

NOTES: SATELLITE DATA IS BEING USED TO AUGMENT CLOUD COVER ABOVE
       12000 FEET.
       "FAIR" INDICATES FEW OR NO CLOUDS BELOW 12,000 FEET WITH NO
       SIGNIFICANT WEATHER AND/OR OBSTRUCTIONS TO VISIBILITY.


NEZ001>004-019>022-054>056-041200-
NEBRASKA PANHANDLE

CITY           SKY/WX    TMP DP  RH WIND       PRES   REMARKS
SCOTTSBLUFF    CLEAR     69  54  58 W8        30.10F
ALLIANCE       CLEAR     56  50  80 MISG      30.09F
CHADRON        CLEAR     70  53  54 SW3       30.02S
GORDON         FAIR      66  55  66 S9        30.07R
KIMBALL        CLEAR     62  52  70 SW14      30.16F
SIDNEY         CLEAR     63  50  62 SW12      30.12F
$$

NEZ057>060-069>072-079>082-041200-
SOUTHWEST NEBRASKA

CITY           SKY/WX    TMP DP  RH WIND       PRES   REMARKS
NORTH PLATTE   CLEAR     62  58  86 CALM      30.07S
IMPERIAL       CLEAR     60  57  89 MISG      30.09S
LEXINGTON      CLEAR     63  61  96 E5        30.07S
MCCOOK         CLEAR     65  62  90 SW5       30.05F
OGALLALA       CLEAR     58  55  91 CALM      30.10S
$$

NEZ005>010-023>029-035>040-094-041200-
NORTH CENTRAL NEBRASKA

CITY           SKY/WX    TMP DP  RH WIND       PRES   REMARKS
VALENTINE      CLEAR     71  64  78 S12       30.05R
AINSWORTH      CLEAR     65  64  96 S6        30.07R
BROKEN BOW     PTCLDY    63  62  97 NW3       30.08S
O`NEILL        CLEAR     70  68  94 SE5       30.07S FOG
ORD            FOG       64  64 100 CALM      30.05S VSB 1/4
THEDFORD       CLEAR     64  62  94 S6        30.09S
$$

NEZ041-046>049-061>064-073>077-083>087-041200-
SOUTH CENTRAL NEBRASKA

CITY           SKY/WX    TMP DP  RH WIND       PRES   REMARKS
GRAND ISLAND   CLEAR     70  67  90 E5        30.06S FOG
AURORA         CLEAR     70  69  97 E5        30.06S FOG
HASTINGS       CLEAR     68  64  87 CALM      30.06F
HEBRON         FOG       69  68  97 CALM      30.04S VSB 1/4
HOLDREGE       CLEAR     65  63  92 CALM      30.06R
KEARNEY        PTCLDY    65  62  90 CALM      30.07S
YORK           FOG       68  68 100 CALM      30.06R VSB<1/4
$$

NEZ011>018-030>034-042>045-041200-
NORTHEAST NEBRASKA

CITY           SKY/WX    TMP DP  RH WIND       PRES   REMARKS
NORFOLK        PTCLDY    69  67  93 CALM      30.06S FOG
ALBION         FOG       70  70  99 CALM      30.07S VSB 1/4
BLAIR          CLEAR     68  68  99 NE6       30.05S FOG
COLUMBUS       PTCLDY    69  68  96 CALM      30.06S FOG
FREMONT        CLEAR     68  68 100 CALM      30.06R FOG
TEKAMAH        FOG       64  63  96 N5        30.05S VSB 1/2
WAYNE          CLEAR     64  64  98 CALM      30.06S FOG
$$

NEZ050>053-065>068-078-088>093-041200-
SOUTHEAST NEBRASKA

CITY           SKY/WX    TMP DP  RH WIND       PRES   REMARKS
LINCOLN        CLEAR     68  66  93 CALM      30.05S
OMAHA EPPLEY   MOCLDY    66  66 100 NW5       30.04F
BEATRICE       CLEAR     70  69  96 NE6       30.03S
FALLS CITY     CLEAR     69  67  93 N5        30.02R
NEBRASKA CITY  CLEAR     69  69 100 N5        30.05R FOG
PLATTSMOUTH    CLEAR     69  68  96 CALM      30.04F
$$

NEZ044-045-051>053-067-041200-
OMAHA AREA

CITY           SKY/WX    TMP DP  RH WIND       PRES   REMARKS
OMAHA EPPLEY   MOCLDY    66  66 100 NW5       30.04F
BLAIR          CLEAR     68  68  99 NE6       30.05S FOG
FREMONT        CLEAR     68  68 100 CALM      30.06R FOG
MILLARD        CLEAR     70  68  92 CALM      30.04S FOG
OFFUTT AFB     CLEAR     69  67  94 NE3       30.03F
PLATTSMOUTH    CLEAR     69  68  96 CALM      30.04F
WAHOO            N/A     67  67 100 N5        30.05S FOG
$$



 

View Past Reports for Omaha, NE.

Products Courtesy of NOAA-NWS
NWS Information Parsing Script by Ken True at Saratoga Weather - Script by SE Lincoln Weather.